Tracking 30918 objects as of 2-Jul-2025
HD Live streaming from Space Station
objects crossing your sky now

SL-3 R/B

Track SL-3 R/B now!
10-day predictions


NORAD ID: 11289
Int'l Code: 1979-021B
Perigee: 805.2 km
Apogee: 913.9 km
Inclination: 81.2 °
Period: 102.0 minutes
Semi major axis: 7230 km
RCS: 6.216 m2 (large)
Launch date: March 1, 1979
Source: Commonwealth of Independent States (former USSR) (CIS)
Launch site: PLESETSK MISSILE AND SPACE COMPLEX (PKMTR)

Note: This is a ROCKET BODY
Your satellite tracking list
BRAZILSAT B4
Track 1 satellite(s)




NASA's NSSDC Master Catalog

Two Line Element Set (TLE):
1 11289U 79021B   25182.72919849  .00000054  00000-0  21722-4 0  9994
2 11289  81.2455 178.6962 0075194 178.2580 181.8870 14.12034662384898
Source of the keplerian elements: AFSPC